Regional Weather Roundup
Issued by NWS

Home | Current Version | Previous Version | Text Only | Print | Product List | Glossary On
Versions: 1 2 3 4 5 6 7 8 9 10 11 12 13 14 15 16 17 18 19 20 21 22 23 24 25 26 27 28 29 30 31 32 33 34 35 36 37 38 39 40 41 42 43 44 45 46 47 48 49 50
000
ASUS43 KLSX 050657
RWRMO

WEATHER SUMMARY FOR MISSOURI
NATIONAL WEATHER SERVICE SPRINGFIELD MO
200 AM CDT SAT SEP 05 2015

NOTE: "FAIR" INDICATES FEW OR NO CLOUDS BELOW 12,000 FEET WITH NO
       SIGNIFICANT WEATHER AND/OR OBSTRUCTIONS TO VISIBILITY.
       CURRENT SKY AND/OR WEATHER CONDITIONS ARE NOT AVAILABLE FOR
       CHILLICOTHE AND FARMINGTON.

MOZ001>031-035>038-043-044-053-054-050800-
...NORTHERN AND WESTERN MISSOURI...

CITY           SKY/WX    TMP DP  RH WIND       PRES   REMARKS
KANSAS CTY INT CLEAR     74  69  85 S9        29.99S
LEE`S SUMMIT   CLEAR     77  68  73 S7        30.01R
ST JOSEPH      CLEAR     73  69  87 S5        29.97S
CHILLICOTHE      N/A     74  70  87 CALM      30.01S

$$
MOZ066>068-077>081-088>096-101>105-050800-
...SOUTHWEST MISSOURI...

CITY           SKY/WX    TMP DP  RH WIND       PRES   REMARKS
SPRINGFIELD    CLEAR     76  67  73 S8        30.04R
JOPLIN         CLEAR     77  69  76 SE7       30.01R

$$
MOZ032>034-039>042-045>050-055>058-069>072-050800-
...CENTRAL MISSOURI...

CITY           SKY/WX    TMP DP  RH WIND       PRES   REMARKS
COLUMBIA       NOT AVBL
JEFFERSON CITY CLEAR     73  70  90 SE5       30.03S
ROLLA          CLEAR     73  67  81 S7        30.05S
SEDALIA        CLEAR     73  68  84 S7        30.03S

$$
MOZ051-052-059>065-050800-
...EAST CENTRAL MISSOURI...

CITY           SKY/WX    TMP DP  RH WIND       PRES   REMARKS
ST LOUIS INTL  NOT AVBL

$$
MOZ072>076-082>087-097>100-106>115-050800-
...SOUTH CENTRAL AND SOUTHEAST MISSOURI...

CITY           SKY/WX    TMP DP  RH WIND       PRES   REMARKS
CAPE GIRARDEAU CLEAR     69  68  96 E3        30.03S FOG
POPLAR BLUFF   CLEAR     71  69  93 CALM      30.02F
WEST PLAINS    CLEAR     69  66  90 CALM      30.08F

$$



USA.gov is the U.S. government's official web portal to all federal, state and local government web resources and services.